Regional Weather Roundup
Issued by NWS

Home | Current Version | Previous Version | Graphics & Text | Print | Product List | Glossary On
Versions: 1 2 3 4 5 6 7 8 9 10 11 12 13 14 15 16 17 18 19 20 21 22 23 24 25 26 27 28 29 30 31 32 33 34 35 36 37 38 39 40 41 42 43 44 45 46 47 48 49 50
548
ASUS43 KLOT 030103
RWRIL

ILLINOIS REGIONAL WEATHER ROUNDUP
NATIONAL WEATHER SERVICE CHICAGO/ROMEOVILLE IL
800 PM CDT MON MAY 02 2016

NOTE: "FAIR" INDICATES FEW OR NO CLOUDS BELOW 12,000 FEET WITH NO
SIGNIFICANT WEATHER AND/OR OBSTRUCTIONS TO VISIBILITY.

* THESE STATIONS ARE NOT UNDER NWS QUALITY CONTROL. THEY ALSO MAY NOT
  REPORT WEATHER SUCH AS PRECIPITATION OR FOG.

ILZ001-002-007-009-015-016-024-030200-
NORTHWEST ILLINOIS

CITY           SKY/WX    TMP DP  RH WIND       PRES   REMARKS
MOLINE         CLOUDY    56  45  66 CALM      30.03R
STERLING*      CLOUDY    55  46  71 CALM      30.03R
$$

ILZ003-004-008-010-011-017-018-030200-
NORTH CENTRAL ILLINOIS

CITY           SKY/WX    TMP DP  RH WIND       PRES   REMARKS
ROCKFORD       CLOUDY    58  35  42 CALM      30.04R
FREEPORT*      CLOUDY    56  40  55 CALM      30.04S
ROCHELLE*      CLOUDY    53  41  62 E5        30.03R
DE KALB*       CLEAR     51  37  58 E5        30.03R
$$

ILZ005-006-012>014-019>023-030200-
NORTHEAST ILLINOIS

CITY           SKY/WX    TMP DP  RH WIND       PRES   REMARKS
CHICAGO-OHARE  PTCLDY    52  31  44 NE7       30.01S
CHICAGO-MIDWAY MOCLDY    54  31  41 N9        30.02S
AURORA         CLEAR     52  37  56 E5        30.02S
LANSING*       CLOUDY    49  36  59 NE6       30.02S
WAUKEGAN       CLEAR     48  35  60 E3        30.02S
DUPAGE AIRPORT CLEAR     53  28  38 E8        30.01R
WHEELING       CLEAR     50  32  50 E3        30.04R
MORRIS*        CLEAR     53  39  58 CALM      30.01S
NORTHERLY ISL    N/A     47  37  68 MISG        N/A
NORTHERLY ISL    N/A     47  37  68 MISG        N/A
$$

LMZ740>746-030200-
SOUTHERN LAKE MICHIGAN

STATION/POSITION SKY/WX   TEMP    WIND        PRES    VSBY  WAVE
                          AIR SEA DIR/SP/G                  HT/PER
                          (F)     (DEG/KT/KT) (MB)    (MI)  (FT/S)
SOUTHERN BUOY              42 42  350/  2/  4 1016.6          1/ 3
HARRISON CRIB              46     350/  7/  7   N/A
BURNHAM HARBOR             47     360/  7/  9   N/A
CALUMET HARBOR             47                 1016.2R
BURNS HARBOR               47      30/  7/  9 1017.3R
MICHIGAN CITY              46      10/  7/  7   N/A
ST. JOSEPH                 46 48                N/A           2/ 3
$$

ILZ025>027-034>036-040-047-049-050-058-095>099-030200-
WEST-CENTRAL ILLINOIS

CITY           SKY/WX    TMP DP  RH WIND       PRES   REMARKS
QUINCY         CLOUDY    51  47  86 N3        30.03F
MACOMB*        CLOUDY    53  49  84 W5        30.05S
PITTSFIELD*    CLOUDY    53  50  90 N3        30.04S
$$

ILZ028>032-037-038-041>044-048-051>054-059>061-030200-
CENTRAL ILLINOIS

CITY           SKY/WX    TMP DP  RH WIND       PRES   REMARKS
BLOOMINGTON    CLOUDY    54  46  74 NE6       30.01S
DECATUR        CLOUDY    55  46  71 NW8       30.00R
PEORIA         CLOUDY    55  45  68 NW3       30.01F
LINCOLN*       CLOUDY    55  49  79 CALM      30.00F
SPRINGFIELD    CLOUDY    55  48  77 NW5       30.01F
TAYLORVILLE    NOT AVBL
$$

ILZ033-039-045-046-055>057-062-063-030200-
EAST-CENTRAL ILLINOIS

CITY           SKY/WX    TMP DP  RH WIND       PRES   REMARKS
CHAMPAIGN      MOCLDY    54  45  71 N8        29.98S
MATTOON        CLOUDY    54  47  77 N8        29.97S
$$

ILZ079-100>102-030200-
SOUTHWEST ILLINOIS

CITY           SKY/WX    TMP DP  RH WIND       PRES   REMARKS
ALTON          CLOUDY    52  48  87 NW7       30.02R
CAHOKIA*       CLOUDY    55  48  77 NW10      30.01S
SPARTA*        CLOUDY    55  48  80 NW5       30.01S
$$

ILZ064>066-069>071-074>076-080>082-084>086-088>090-092>094-030200-
SOUTH-CENTRAL ILLINOIS

CITY           SKY/WX    TMP DP  RH WIND       PRES   REMARKS
CARBONDALE     PTCLDY    55  47  74 N7        29.98S
CAIRO*         CLEAR     58  49  74 N7        29.97R
EFFINGHAM*     CLOUDY    55  51  87 W8        30.00S
MT. VERNON     CLOUDY    55  46  71 CALM      29.99S
SALEM*         MOCLDY    55  49  79 NW5       30.00R
$$

ILZ067-068-072-073-078-083-087-091-030200-
SOUTHEAST ILLINOIS

CITY           SKY/WX    TMP DP  RH WIND       PRES   REMARKS
LAWRENCEVILLE  CLOUDY    55  50  83 N5        29.98R
FLORA*         PTCLDY    55  50  83 NW5       29.99S
HARRISBURG*    CLOUDY    57  50  77 NW5       29.98S
ROBINSON*      CLOUDY    53  50  89 CALM      29.99R
CARMI*         CLOUDY    57  51  80 NW8       29.97S
$$

ABBREVIATIONS USED IN REMARKS
   TC - TEMPERATURE IN CELSIUS
  WCI - WIND CHILL INDEX
   HX - HEAT INDEX
  VSB - VISIBILITY
$$





USA.gov is the U.S. government's official web portal to all federal, state and local government web resources and services.